�������l�o���
Date,Time,MP-1(��Sv/h),MP-2(��Sv/h),MP-3(��Sv/h),MP-4(��Sv/h),MP-5(��Sv/h),MP-6(��Sv/h),MP-7(��Sv/h),MP-8(��Sv/h),����,����(m/s),���J
2017/07/16,00:00,1.015,1.614,1.079,1.905,1.334,0.533,0.977,0.896,�k��,4.6,��
2017/07/16,00:10,1.015,1.614,1.082,1.907,1.334,0.534,0.976,0.895,�k��,4.3,��
2017/07/16,00:20,1.015,1.613,1.080,1.909,1.334,0.533,0.975,0.895,�k��,5.1,��
2017/07/16,00:30,1.014,1.611,1.081,1.911,1.336,0.533,0.975,0.897,�k��,5.2,��
2017/07/16,00:40,1.014,1.615,1.081,1.908,1.337,0.535,0.974,0.896,�k��,4.4,��
2017/07/16,00:50,1.013,1.613,1.079,1.910,1.336,0.534,0.975,0.894,�k��,3.1,��
2017/07/16,01:00,1.012,1.613,1.079,1.909,1.332,0.534,0.973,0.895,�k,3.6,��
2017/07/16,01:10,1.017,1.614,1.076,1.907,1.334,0.532,0.975,0.895,�k�k��,4.3,��
2017/07/16,01:20,1.013,1.611,1.079,1.907,1.333,0.532,0.974,0.894,�k�k��,4.2,��
2017/07/16,01:30,1.014,1.612,1.079,1.906,1.333,0.532,0.974,0.897,�k�k��,3.9,��
2017/07/16,01:40,1.010,1.611,1.078,1.908,1.332,0.532,0.974,0.895,�k�k��,3.7,��
2017/07/16,01:50,1.010,1.612,1.078,1.909,1.334,0.533,0.974,0.895,�k�k��,3.8,��
2017/07/16,02:00,1.011,1.610,1.078,1.910,1.333,0.531,0.974,0.896,�k�k��,3.4,��
2017/07/16,02:10,1.013,1.612,1.076,1.909,1.333,0.533,0.973,0.894,�k��,3.7,��
2017/07/16,02:20,1.010,1.612,1.077,1.909,1.334,0.532,0.975,0.896,�k��,4.0,��
2017/07/16,02:30,1.010,1.612,1.078,1.907,1.332,0.532,0.972,0.894,�k��,3.4,��
2017/07/16,02:40,1.013,1.611,1.078,1.907,1.333,0.531,0.973,0.895,�k��,2.8,��
2017/07/16,02:50,1.016,1.611,1.080,1.907,1.332,0.532,0.975,0.895,�k�k��,1.7,��
2017/07/16,03:00,1.013,1.611,1.079,1.907,1.332,0.531,0.974,0.893,�k�k��,1.4,��
2017/07/16,03:10,1.013,1.613,1.078,1.909,1.332,0.531,0.975,0.896,�k�k��,1.5,��
2017/07/16,03:20,1.011,1.613,1.079,1.907,1.330,0.531,0.976,0.893,�k�k��,1.5,��
2017/07/16,03:30,1.013,1.613,1.078,1.907,1.334,0.531,0.974,0.895,�k��,1.5,��
2017/07/16,03:40,1.012,1.610,1.077,1.907,1.332,0.533,0.974,0.894,�k�k��,1.1,��
2017/07/16,03:50,1.012,1.612,1.079,1.910,1.333,0.533,0.974,0.895,���k��,0.6,��
2017/07/16,04:00,1.013,1.611,1.079,1.907,1.331,0.532,0.974,0.895,�k��,0.8,��
2017/07/16,04:10,1.011,1.611,1.080,1.908,1.331,0.533,0.972,0.894,��,0.8,��
2017/07/16,04:20,1.013,1.611,1.079,1.909,1.331,0.533,0.973,0.897,�쓌,0.6,��
2017/07/16,04:30,1.014,1.611,1.078,1.908,1.334,0.531,0.975,0.894,-,CALM,��
2017/07/16,04:40,1.012,1.613,1.077,1.910,1.333,0.533,0.975,0.895,-,CALM,��
2017/07/16,04:50,1.012,1.608,1.080,1.908,1.335,0.533,0.974,0.895,�쐼,1.2,��
2017/07/16,05:00,1.014,1.613,1.079,1.911,1.332,0.533,0.974,0.896,��,0.6,��
2017/07/16,05:10,1.014,1.612,1.078,1.911,1.333,0.533,0.975,0.896,��,0.6,��
2017/07/16,05:20,1.012,1.612,1.079,1.910,1.332,0.532,0.976,0.895,-,CALM,��
2017/07/16,05:30,1.013,1.613,1.081,1.910,1.333,0.534,0.975,0.896,-,CALM,��
2017/07/16,05:40,1.013,1.612,1.077,1.913,1.330,0.534,0.976,0.895,-,CALM,��
2017/07/16,05:50,1.014,1.614,1.080,1.911,1.330,0.534,0.975,0.896,-,CALM,��
2017/07/16,06:00,1.013,1.613,1.081,1.906,1.332,0.534,0.976,0.896,���쐼,0.9,��
2017/07/16,06:10,1.013,1.614,1.079,1.909,1.334,0.535,0.976,0.897,�쐼,1.7,��
2017/07/16,06:20,1.014,1.614,1.078,1.915,1.332,0.534,0.975,0.896,�쐼,1.4,��
2017/07/16,06:30,1.015,1.612,1.082,1.910,1.333,0.534,0.976,0.896,�쐼,0.9,��
2017/07/16,06:40,1.014,1.612,1.081,1.908,1.331,0.533,0.977,0.896,�쐼,0.9,��
2017/07/16,06:50,1.017,1.613,1.081,1.911,1.332,0.533,0.976,0.897,��쐼,1.9,��
2017/07/16,07:00,1.015,1.615,1.081,1.913,1.333,0.533,0.975,0.896,�쐼,1.7,��
2017/07/16,07:10,1.016,1.616,1.080,1.909,1.331,0.536,0.976,0.897,��쐼,1.7,��
2017/07/16,07:20,1.015,1.616,1.080,1.912,1.334,0.534,0.977,0.897,��쐼,2.3,��
2017/07/16,07:30,1.016,1.615,1.082,1.914,1.334,0.534,0.976,0.896,��쓌,2.3,��
2017/07/16,07:40,1.016,1.616,1.081,1.910,1.337,0.537,0.976,0.898,��,2.9,��
2017/07/16,07:50,1.018,1.616,1.081,1.913,1.333,0.535,0.976,0.897,��,3.1,��
2017/07/16,08:00,1.017,1.612,1.083,1.911,1.332,0.535,0.978,0.897,��쓌,4.2,��
2017/07/16,08:10,1.017,1.613,1.080,1.913,1.335,0.533,0.976,0.897,��쓌,4.0,��
2017/07/16,08:20,1.016,1.611,1.079,1.912,1.336,0.535,0.977,0.895,��쓌,4.7,��
2017/07/16,08:30,1.018,1.613,1.081,1.912,1.335,0.534,0.975,0.896,��쓌,4.9,��
2017/07/16,08:40,1.014,1.612,1.080,1.913,1.336,0.534,0.976,0.895,��쓌,5.3,��
2017/07/16,08:50,1.017,1.616,1.079,1.910,1.339,0.534,0.976,0.896,��,4.8,��
2017/07/16,09:00,1.019,1.614,1.077,1.911,1.338,0.535,0.978,0.894,��쓌,4.5,��
2017/07/16,09:10,1.018,1.614,1.080,1.911,1.337,0.532,0.978,0.895,��쓌,4.3,��
2017/07/16,09:20,1.018,1.616,1.081,1.916,1.338,0.532,0.978,0.895,��쓌,4.2,��
2017/07/16,09:30,1.017,1.616,1.080,1.913,1.337,0.534,0.978,0.895,��쓌,4.0,��
2017/07/16,09:40,1.016,1.616,1.082,1.912,1.337,0.534,0.976,0.894,��쓌,4.2,��
2017/07/16,09:50,1.019,1.616,1.080,1.915,1.339,0.533,0.976,0.896,��쓌,5.0,��
2017/07/16,10:00,1.021,1.618,1.083,1.913,1.342,0.535,0.975,0.896,��쓌,5.5,��
2017/07/16,10:10,1.020,1.621,1.084,1.913,1.340,0.534,0.975,0.896,��쓌,5.5,��
2017/07/16,10:20,1.021,1.623,1.080,1.915,1.341,0.535,0.977,0.896,��쓌,5.5,��
2017/07/16,10:30,1.023,1.620,1.083,1.914,1.341,0.534,0.976,0.895,��쓌,5.7,��
2017/07/16,10:40,1.021,1.620,1.085,1.918,1.339,0.535,0.977,0.895,��쓌,6.5,��
2017/07/16,10:50,1.020,1.622,1.086,1.916,1.342,0.535,0.976,0.897,��쓌,5.7,��
2017/07/16,11:00,1.019,1.622,1.084,1.915,1.342,0.533,0.976,0.895,��쓌,4.8,��
2017/07/16,11:10,1.021,1.621,1.085,1.917,1.342,0.535,0.977,0.896,��쓌,6.3,��
2017/07/16,11:20,1.020,1.622,1.084,1.917,1.342,0.532,0.974,0.896,��쓌,7.0,��
2017/07/16,11:30,1.022,1.623,1.085,1.916,1.341,0.532,0.977,0.897,��쓌,5.9,��
2017/07/16,11:40,1.019,1.624,1.086,1.918,1.345,0.533,0.976,0.894,��쓌,6.3,��
2017/07/16,11:50,1.018,1.622,1.087,1.917,1.343,0.533,0.975,0.895,��,5.3,��
2017/07/16,12:00,1.023,1.624,1.085,1.917,1.344,0.534,0.976,0.895,��쓌,4.4,��
2017/07/16,12:10,1.020,1.624,1.085,1.914,1.346,0.534,0.977,0.896,��,3.8,�L
2017/07/16,12:20,1.021,1.624,1.085,1.918,1.343,0.534,0.978,0.893,��,3.9,�L
2017/07/16,12:30,1.017,1.622,1.087,1.917,1.343,0.535,0.977,0.896,��쓌,5.0,��
2017/07/16,12:40,1.022,1.622,1.086,1.916,1.344,0.536,0.977,0.895,��,6.2,��
2017/07/16,12:50,1.021,1.620,1.085,1.917,1.343,0.535,0.976,0.896,��,5.4,�L
2017/07/16,13:00,1.021,1.619,1.086,1.914,1.344,0.535,0.976,0.895,��,4.7,��
2017/07/16,13:10,1.020,1.622,1.086,1.917,1.340,0.534,0.976,0.896,��,4.0,�L
2017/07/16,13:20,1.017,1.622,1.085,1.922,1.345,0.534,0.977,0.896,��,4.0,�L
2017/07/16,13:30,1.019,1.623,1.085,1.920,1.345,0.534,0.977,0.897,��,3.5,�L
2017/07/16,13:40,1.020,1.622,1.084,1.917,1.342,0.536,0.978,0.896,��쐼,2.9,�L
2017/07/16,13:50,1.020,1.620,1.082,1.915,1.341,0.535,0.978,0.898,���쐼,0.8,�L
2017/07/16,14:00,1.021,1.622,1.085,1.919,1.342,0.536,0.976,0.895,��,2.0,�L
2017/07/16,14:10,1.020,1.618,1.084,1.919,1.342,0.536,0.977,0.898,��쐼,2.0,�L
2017/07/16,14:20,1.019,1.622,1.083,1.917,1.341,0.536,0.976,0.896,��쐼,1.2,�L
2017/07/16,14:30,1.019,1.620,1.085,1.919,1.337,0.535,0.977,0.895,�쐼,1.2,�L
2017/07/16,14:40,1.021,1.617,1.085,1.920,1.339,0.535,0.977,0.895,���쐼,1.2,�L
2017/07/16,14:50,1.021,1.621,1.086,1.921,1.340,0.537,0.977,0.898,���k��,1.7,�L
2017/07/16,15:00,1.022,1.620,1.086,1.921,1.341,0.537,0.977,0.896,���k��,4.2,��
2017/07/16,15:10,1.021,1.623,1.088,1.917,1.344,0.536,0.978,0.896,�k��,5.0,��
2017/07/16,15:20,1.018,1.610,1.083,1.917,1.343,0.537,0.976,0.896,���k��,2.3,�L
2017/07/16,15:30,1.015,1.609,1.084,1.918,1.344,0.537,0.980,0.895,���k��,3.3,��
2017/07/16,15:40,1.017,1.610,1.087,1.920,1.345,0.536,0.978,0.899,���k��,3.7,��
2017/07/16,15:50,1.014,1.611,1.084,1.919,1.342,0.536,0.978,0.898,��,3.1,��
2017/07/16,16:00,1.013,1.608,1.084,1.919,1.343,0.536,0.979,0.898,���쐼,3.3,��
2017/07/16,16:10,1.011,1.610,1.085,1.920,1.343,0.534,0.977,0.898,��쓌,4.4,�L
2017/07/16,16:20,1.013,1.609,1.085,1.919,1.346,0.537,0.978,0.897,�쓌,3.9,�L
2017/07/16,16:30,1.010,1.608,1.083,1.918,1.342,0.535,0.975,0.896,��쓌,4.1,�L
2017/07/16,16:40,1.012,1.609,1.086,1.916,1.343,0.537,0.978,0.899,��,5.2,�L
2017/07/16,16:50,1.010,1.608,1.082,1.921,1.344,0.537,0.978,0.898,��,4.7,�L
2017/07/16,17:00,1.011,1.610,1.084,1.918,1.345,0.536,0.979,0.897,��쐼,3.2,�L
2017/07/16,17:10,1.011,1.608,1.083,1.918,1.343,0.536,0.978,0.899,�쐼,2.6,�L
2017/07/16,17:20,1.011,1.608,1.084,1.916,1.343,0.535,0.979,0.898,�쐼,3.7,��
2017/07/16,17:30,1.010,1.605,1.083,1.917,1.344,0.537,0.975,0.898,�쐼,3.7,��
2017/07/16,17:40,1.012,1.605,1.082,1.920,1.343,0.537,0.979,0.898,��,3.5,�L
2017/07/16,17:50,1.009,1.604,1.083,1.917,1.340,0.535,0.978,0.897,���k��,3.1,�L
2017/07/16,18:00,1.009,1.604,1.082,1.919,1.341,0.537,0.977,0.897,�쐼,6.0,�L
2017/07/16,18:10,1.011,1.604,1.080,1.915,1.339,0.537,0.977,0.899,���쐼,4.6,�L
2017/07/16,18:20,1.009,1.604,1.083,1.916,1.338,0.538,0.977,0.897,�쐼,3.6,�L
2017/07/16,18:30,1.009,1.603,1.082,1.916,1.340,0.537,0.980,0.897,�쐼,3.7,�L
2017/07/16,18:40,1.011,1.596,1.082,1.918,1.337,0.537,0.977,0.897,��쐼,5.0,�L
2017/07/16,18:50,1.008,1.600,1.082,1.914,1.337,0.536,0.977,0.899,��쐼,5.4,��
2017/07/16,19:00,1.009,1.598,1.080,1.914,1.338,0.536,0.979,0.898,��쐼,4.7,��
2017/07/16,19:10,1.007,1.596,1.081,1.914,1.338,0.536,0.977,0.897,�쐼,3.8,��
2017/07/16,19:20,1.006,1.597,1.080,1.912,1.335,0.537,0.978,0.898,�쐼,3.7,��
2017/07/16,19:30,1.006,1.594,1.080,1.912,1.335,0.536,0.978,0.898,���쐼,5.7,�L
2017/07/16,19:40,1.005,1.598,1.078,1.915,1.334,0.536,0.978,0.897,���쐼,4.8,�L
2017/07/16,19:50,1.003,1.596,1.081,1.917,1.335,0.535,0.978,0.900,���쐼,5.1,�L
2017/07/16,20:00,1.004,1.597,1.080,1.916,1.336,0.537,0.977,0.896,���쐼,4.7,�L
2017/07/16,20:10,1.004,1.595,1.079,1.913,1.335,0.536,0.977,0.897,���쐼,4.3,�L
2017/07/16,20:20,1.002,1.589,1.079,1.912,1.331,0.535,0.977,0.896,�쐼,3.6,�L
2017/07/16,20:30,1.001,1.595,1.077,1.911,1.334,0.537,0.977,0.897,���쐼,2.8,�L
2017/07/16,20:40,1.001,1.592,1.076,1.912,1.331,0.535,0.976,0.896,��쐼,1.7,�L
2017/07/16,20:50,1.001,1.591,1.077,1.910,1.333,0.536,0.975,0.895,��,3.0,�L
2017/07/16,21:00,0.999,1.591,1.078,1.910,1.331,0.535,0.974,0.898,��쓌,0.9,�L
2017/07/16,21:10,1.002,1.592,1.078,1.910,1.331,0.537,0.976,0.898,��쓌,0.6,�L
2017/07/16,21:20,1.002,1.590,1.078,1.912,1.330,0.534,0.976,0.896,��쐼,0.9,��
2017/07/16,21:30,1.001,1.592,1.077,1.911,1.331,0.535,0.976,0.897,��,2.3,��
2017/07/16,21:40,1.001,1.594,1.075,1.911,1.332,0.534,0.977,0.896,��,4.1,��
2017/07/16,21:50,1.000,1.592,1.078,1.913,1.327,0.537,0.977,0.898,���k��,4.4,��
2017/07/16,22:00,1.001,1.592,1.076,1.910,1.327,0.534,0.976,0.898,���k��,5.1,�L
2017/07/16,22:10,0.999,1.590,1.079,1.907,1.331,0.535,0.976,0.898,��,4.5,�L
2017/07/16,22:20,1.001,1.590,1.078,1.912,1.330,0.536,0.976,0.899,��,5.9,�L
2017/07/16,22:30,0.999,1.585,1.074,1.909,1.328,0.535,0.975,0.893,��,5.4,�L
2017/07/16,22:40,0.996,1.587,1.072,1.909,1.326,0.535,0.972,0.893,��,4.6,�L
2017/07/16,22:50,0.995,1.576,1.071,1.907,1.321,0.535,0.971,0.893,��,5.1,�L
2017/07/16,23:00,0.989,1.570,1.066,1.903,1.315,0.534,0.971,0.894,��,5.7,�L
2017/07/16,23:10,0.989,1.567,1.063,1.896,1.311,0.533,0.969,0.893,��,5.5,�L
2017/07/16,23:20,0.986,1.560,1.063,1.892,1.308,0.535,0.971,0.895,��,5.3,�L
2017/07/16,23:30,0.985,1.560,1.060,1.889,1.304,0.535,0.969,0.891,��,5.1,�L
2017/07/16,23:40,0.983,1.558,1.060,1.888,1.305,0.531,0.965,0.889,��,4.8,�L
2017/07/16,23:50,0.983,1.560,1.059,1.887,1.302,0.531,0.968,0.889,��,3.6,�L
